TITAN 3C TRANSTAGE DEB, 27864

Orbit data source: Space-Track

TITAN 3C TRANSTAGE DEB, 27864 is space debris in HEO originally from a launch on Tue, 21 Dec 1965 UTC launched from the Air Force Eastern Test Range (AFETR). Debris objects in space refer to the collection of defunct objects orbiting the Earth. Examples of debris include non-operational satellites, rocket bodies, and fragments generated from explosions, collisions, or faulty payload assembly.

Loading next visibility...
Identifier
27864, 1965-108BK
Orbit
HEO
Country
Flag of USUS
Related business
Manufacturer
Unknown
Mission
Spacecraft
Bus & Motor
Unknown
Mass
Unknown
Launch date (UTC)
1965-12-21 (61 years ago)
Launch vehicle
Unknown
Launch site
Air Force Eastern Test Range (AFETR)
Object type
Payload
Rocket body
Debris
Shape & HBR
Unknown shape, 0.2 m
Radar Cross Section
Medium (>0.1 m² and <1 m²)

Expand to show TLE details & history
Last TLE update: 1 week ago

TLE from 1 week ago
0 TITAN 3C TRANSTAGE DEB
1 27864U 65108BK  26199.46386597  .00000069  00000-0  15648-2 0  9993
2 27864  26.5334 169.2695 6725238 266.4795 336.6170  2.66397111135520
Epoch: 2026-07-18T11:07Z
TLE epoch observation values (Epoch: 2026-07-18T11:07:58.019Z)
Latitude
5.62054°
Longitude
-125.4232°
Altitude
7,123.553 km
Speed
6.396 km/s
True Right ascension
22h 31m 22s
True Declination
5° 36' 10"
Sunlit
Object was in daylight at epoch
Visualization orbit readout
Latitude
Unknown
Longitude
Unknown
Altitude
Unknown
Speed
Unknown
Apparent Right ascension
Unknown
Apparent Declination
Unknown
Sunlit
N/A
Visualization observer readout
Local Sidereal Time
14:17:18
Azimuth
Unknown
Elevation
Unknown
Doppler factor
Unknown
Orbital elements
Apogee altitude
30,391.542 km
Perigee altitude
821.279 km
Semi-major axis
21,984.547 km
Eccentricity
0.67252
Inclination
26.5334°
RAAN
169.2695°
Arg. of periapsis
266.4795°
True anomaly
260.83383°
Mean anomaly
336.617°
Eccentric anomaly
305.08601°
Mean motion
0.66584 °/min
Orbital period
540.67 mins
BSTAR
0.0015648
Loading maneuver chart data...
Computing Atmospheric mass density...

Documentation

Showing up to 5 results
|